This demonstration page uses our WeatherBlox Daily Observations layout. Learn more.

Left ArrowRight Arrow

38.89511, -77.03637

Hourly Observations for May 1, 2018

Temp ( °F °C ) Dew Point ( °F °C ) Humidity (%) Winds ( mph kmh ) Pressure ( in mb ) Visibility ( mi km ) Precip ( " mm )
12:52 am 00:52 Clear 56 13.3 39 3.9 53 53 SSW 6 9 30.11 1020 10 16 0.00 0.00
1:52 am 01:52 Clear 57 13.9 31 -0.6 37 37 SSW 3 6 30.11 1020 10 16 0.00 0.00
2:52 am 02:52 Clear 51 10.6 43 6.1 74 74 SSW 7 11 30.11 1020 10 16 0.00 0.00
3:52 am 03:52 Clear 51 10.6 35 1.7 54 54 S 5 7 30.12 1020 10 16 0.00 0.00
4:52 am 04:52 Mostly Clear 50 10 36 2.2 59 59 SW 5 7 30.13 1020 10 16 0.00 0.00
5:52 am 05:52 Clear 50 10 34 1.1 54 54 SW 5 7 30.15 1021 10 16 0.00 0.00
6:52 am 06:52 Sunny 51 10.6 35 1.7 54 54 S 3 6 30.18 1022 10 16 0.00 0.00
7:52 am 07:52 Sunny 55 12.8 43 6.1 64 64 S 6 9 30.19 1022 10 16 0.00 0.00
8:52 am 08:52 Sunny 58 14.4 44 6.7 60 60 S 9 15 30.19 1022 10 16 0.00 0.00
9:52 am 09:52 Sunny 70 21.1 35 1.7 28 28 WNW 7 11 30.20 1023 10 16 0.00 0.00
10:52 am 10:52 Sunny 74 23.3 32 0 21 21 NW 8 13 30.20 1023 10 16 0.00 0.00
11:52 am 11:52 Sunny 75 23.9 27 -2.8 17 17 VRB 7 11 30.18 1022 10 16 0.00 0.00
12:52 pm 12:52 Sunny 77 25 32 0 19 19 WNW 10 17 30.16 1021 10 16 0.00 0.00
1:52 pm 13:52 Sunny 79 26.1 30 -1.1 17 17 VRB 5 7 30.14 1021 10 16 0.00 0.00
2:52 pm 14:52 Sunny 81 27.2 33 0.6 18 18 Calm 30.13 1020 10 16 0.00 0.00
3:52 pm 15:52 Sunny 81 27.2 29 -1.7 15 15 VRB 5 7 30.11 1020 10 16 0.00 0.00
4:52 pm 16:52 Sunny 82 27.8 31 -0.6 16 16 WSW 9 15 30.10 1019 10 16 0.00 0.00
5:52 pm 17:52 Sunny 81 27.2 31 -0.6 16 16 S 7 11 30.11 1020 10 16 0.00 0.00
6:52 pm 18:52 Sunny 80 26.7 30 -1.1 16 16 SSW 9 15 30.11 1020 10 16 0.00 0.00
8:52 pm 20:52 Clear 69 20.6 41 5 36 36 S 6 9 30.12 1020 10 16 0.00 0.00
9:52 pm 21:52 Clear 66 18.9 46 7.8 49 49 S 8 13 30.13 1020 10 16 0.00 0.00
10:52 pm 22:52 Clear 66 18.9 43 6.1 43 43 S 6 9 30.14 1021 10 16 0.00 0.00
11:52 pm 23:52 Clear 63 17.2 48 8.9 58 58 S 6 9 30.14 1021 10 16 0.00 0.00

Powered by AerisWeather